• Em Portugal
  • Lista de países
  • Para 7 dias
  • Temperatura da água
  • Mapas de satélite
  • Mapa do tempo
  • Widgets de tempo
  • user-avatar
    Iniciar Sessão

    Previsão horária em Vasilkovka

    Hoje, 16 Outubro, Terça-feira

    Tempo Temperatura Precipitação Vento Pressão Humidade
    00:00 +16°C° 0 mm 2 m/s 761 mmHg 68%
    01:00 +15°C° 0 mm 2 m/s 761 mmHg 70%
    02:00 +15°C° 0 mm 2 m/s 760 mmHg 72%
    03:00 +15°C° 0 mm 2 m/s 761 mmHg 74%
    04:00 +15°C° 0 mm 2 m/s 761 mmHg 75%
    05:00 +14°C° 0 mm 2 m/s 761 mmHg 77%
    06:00 +15°C° 0 mm 2 m/s 761 mmHg 73%
    07:00 +16°C° 0 mm 2 m/s 761 mmHg 69%
    08:00 +17°C° 0 mm 2 m/s 761 mmHg 66%
    09:00 +19°C° 0 mm 2 m/s 761 mmHg 59%
    10:00 +21°C° 0 mm 2 m/s 761 mmHg 52%
    11:00 +24°C° 0 mm 3 m/s 761 mmHg 45%
    12:00 +25°C° 0 mm 3 m/s 760 mmHg 42%
    13:00 +25°C° 0 mm 3 m/s 760 mmHg 40%
    14:00 +26°C° 0 mm 3 m/s 760 mmHg 37%
    15:00 +25°C° 0 mm 2 m/s 760 mmHg 40%
    16:00 +23°C° 0 mm 2 m/s 760 mmHg 44%
    17:00 +21°C° 0 mm 2 m/s 760 mmHg 48%
    18:00 +20°C° 0 mm 2 m/s 760 mmHg 50%
    19:00 +19°C° 0 mm 2 m/s 760 mmHg 52%
    20:00 +18°C° 0 mm 2 m/s 760 mmHg 54%
    21:00 +18°C° 0 mm 2 m/s 760 mmHg 56%
    22:00 +17°C° 0 mm 2 m/s 760 mmHg 57%
    23:00 +17°C° 0 mm 2 m/s 760 mmHg 58%

    Amanhã, 17 Outubro, Quarta-feira

    Tempo Temperatura Precipitação Vento Pressão Humidade
    00:00 +16°C° 0 mm 2 m/s 760 mmHg 60%
    01:00 +16°C° 0 mm 2 m/s 760 mmHg 61%
    02:00 +16°C° 0 mm 1 m/s 760 mmHg 62%
    03:00 +15°C° 0 mm 1 m/s 760 mmHg 64%
    04:00 +15°C° 0 mm 1 m/s 759 mmHg 65%
    05:00 +15°C° 0 mm 1 m/s 759 mmHg 66%
    06:00 +15°C° 0 mm 1 m/s 759 mmHg 63%
    07:00 +16°C° 0 mm 2 m/s 760 mmHg 60%
    08:00 +17°C° 0 mm 2 m/s 760 mmHg 57%
    09:00 +19°C° 0 mm 2 m/s 760 mmHg 51%
    10:00 +21°C° 0 mm 2 m/s 760 mmHg 46%
    11:00 +24°C° 0 mm 3 m/s 759 mmHg 40%
    12:00 +24°C° 0 mm 3 m/s 759 mmHg 38%
    13:00 +25°C° 0 mm 3 m/s 759 mmHg 37%
    14:00 +26°C° 0 mm 3 m/s 759 mmHg 35%
    15:00 +24°C° 0 mm 3 m/s 758 mmHg 38%
    16:00 +23°C° 0 mm 2 m/s 758 mmHg 42%
    17:00 +20°C° 0 mm 2 m/s 758 mmHg 46%
    18:00 +19°C° 0 mm 2 m/s 758 mmHg 49%
    19:00 +19°C° 0 mm 2 m/s 758 mmHg 51%
    20:00 +18°C° 0 mm 2 m/s 758 mmHg 53%
    21:00 +17°C° 0 mm 2 m/s 758 mmHg 55%
    22:00 +17°C° 0 mm 2 m/s 758 mmHg 56%
    23:00 +16°C° 0 mm 2 m/s 758 mmHg 58%

    Depois de amanhã, 18 Outubro, Quinta-feira

    Tempo Temperatura Precipitação Vento Pressão Humidade
    00:00 +16°C° 0 mm 2 m/s 758 mmHg 59%
    01:00 +15°C° 0 mm 2 m/s 758 mmHg 60%
    02:00 +15°C° 0 mm 2 m/s 758 mmHg 61%
    03:00 +15°C° 0 mm 2 m/s 758 mmHg 61%
    04:00 +14°C° 0 mm 2 m/s 758 mmHg 62%
    05:00 +14°C° 0 mm 2 m/s 758 mmHg 63%
    06:00 +14°C° 0 mm 3 m/s 758 mmHg 60%
    07:00 +16°C° 0 mm 3 m/s 758 mmHg 57%
    08:00 +17°C° 0 mm 3 m/s 758 mmHg 54%
    09:00 +19°C° 0 mm 4 m/s 758 mmHg 48%
    10:00 +20°C° 0 mm 4 m/s 758 mmHg 42%
    11:00 +22°C° 0 mm 4 m/s 758 mmHg 37%
    12:00 +23°C° 0 mm 4 m/s 757 mmHg 35%
    13:00 +25°C° 0 mm 4 m/s 757 mmHg 33%
    14:00 +25°C° 0 mm 4 m/s 757 mmHg 32%
    15:00 +23°C° 0 mm 4 m/s 756 mmHg 36%
    16:00 +21°C° 0 mm 3 m/s 756 mmHg 39%
    17:00 +20°C° 0 mm 3 m/s 756 mmHg 43%
    18:00 +19°C° 0 mm 3 m/s 756 mmHg 45%
    19:00 +18°C° 0 mm 3 m/s 756 mmHg 46%
    20:00 +17°C° 0 mm 3 m/s 756 mmHg 48%
    21:00 +17°C° 0 mm 3 m/s 756 mmHg 49%
    22:00 +16°C° 0 mm 3 m/s 756 mmHg 50%
    23:00 +14°C° 0 mm 3 m/s 756 mmHg 51%

    19 Outubro, Sexta-feira

    Tempo Temperatura Precipitação Vento Pressão Humidade
    00:00 +14°C° 0 mm 3 m/s 756 mmHg 52%
    01:00 +14°C° 0 mm 3 m/s 756 mmHg 53%
    02:00 +13°C° 0 mm 3 m/s 756 mmHg 54%
    03:00 +13°C° 0 mm 3 m/s 756 mmHg 55%
    04:00 +12°C° 0 mm 3 m/s 755 mmHg 56%
    05:00 +12°C° 0 mm 3 m/s 755 mmHg 58%
    06:00 +13°C° 0 mm 3 m/s 755 mmHg 55%
    07:00 +14°C° 0 mm 3 m/s 755 mmHg 53%
    08:00 +15°C° 0 mm 4 m/s 755 mmHg 50%
    09:00 +17°C° 0 mm 4 m/s 755 mmHg 46%
    10:00 +19°C° 0 mm 4 m/s 755 mmHg 41%
    11:00 +21°C° 0 mm 4 m/s 755 mmHg 37%
    12:00 +22°C° 0 mm 4 m/s 754 mmHg 35%
    13:00 +22°C° 0 mm 4 m/s 754 mmHg 34%
    14:00 +23°C° 0 mm 4 m/s 753 mmHg 32%
    15:00 +21°C° 0 mm 3 m/s 753 mmHg 36%
    16:00 +20°C° 0 mm 3 m/s 753 mmHg 40%
    17:00 +19°C° 0 mm 2 m/s 753 mmHg 43%
    18:00 +18°C° 0 mm 3 m/s 753 mmHg 46%
    19:00 +17°C° 0 mm 3 m/s 752 mmHg 49%
    20:00 +16°C° 0 mm 3 m/s 752 mmHg 52%
    21:00 +16°C° 0 mm 2 m/s 752 mmHg 54%
    22:00 +15°C° 0 mm 2 m/s 752 mmHg 56%
    23:00 +15°C° 0 mm 2 m/s 752 mmHg 58%

    20 Outubro, Sábado

    Tempo Temperatura Precipitação Vento Pressão Humidade
    00:00 +14°C° 0 mm 2 m/s 752 mmHg 60%
    01:00 +14°C° 0 mm 2 m/s 751 mmHg 62%
    02:00 +14°C° 0 mm 2 m/s 751 mmHg 64%
    03:00 +14°C° 0 mm 2 m/s 751 mmHg 66%
    04:00 +13°C° 0 mm 2 m/s 751 mmHg 69%
    05:00 +13°C° 0 mm 2 m/s 751 mmHg 71%
    06:00 +14°C° 0.1 mm 2 m/s 751 mmHg 70%
    07:00 +14°C° 0.1 mm 2 m/s 751 mmHg 70%
    08:00 +15°C° 0.1 mm 2 m/s 751 mmHg 69%
    09:00 +16°C° 0 mm 2 m/s 751 mmHg 64%
    10:00 +17°C° 0 mm 2 m/s 750 mmHg 60%
    11:00 +20°C° 0 mm 1 m/s 750 mmHg 55%
    12:00 +20°C° 0 mm 1 m/s 750 mmHg 53%
    13:00 +21°C° 0 mm 1 m/s 750 mmHg 51%
    14:00 +22°C° 0 mm 1 m/s 750 mmHg 48%
    15:00 +21°C° 0 mm 1 m/s 750 mmHg 52%
    16:00 +20°C° 0 mm 1 m/s 750 mmHg 55%
    17:00 +18°C° 0 mm 2 m/s 749 mmHg 59%
    18:00 +17°C° 0 mm 2 m/s 749 mmHg 62%
    19:00 +16°C° 0 mm 2 m/s 749 mmHg 65%
    20:00 +16°C° 0 mm 2 m/s 749 mmHg 68%
    21:00 +15°C° 0 mm 1 m/s 749 mmHg 70%
    22:00 +15°C° 0 mm 1 m/s 749 mmHg 72%
    23:00 +15°C° 0 mm 1 m/s 749 mmHg 74%

    21 Outubro, Domingo

    Tempo Temperatura Precipitação Vento Pressão Humidade
    00:00 +14°C° 0 mm 1 m/s 749 mmHg 76%
    01:00 +14°C° 0 mm 1 m/s 749 mmHg 77%
    02:00 +14°C° 0 mm 1 m/s 749 mmHg 78%
    03:00 +14°C° 0 mm 1 m/s 749 mmHg 81%
    04:00 +13°C° 0 mm 1 m/s 749 mmHg 83%
    05:00 +13°C° 0 mm 1 m/s 749 mmHg 85%
    06:00 +13°C° 0 mm 1 m/s 749 mmHg 83%
    07:00 +14°C° 0 mm 1 m/s 749 mmHg 80%
    08:00 +15°C° 0 mm 1 m/s 749 mmHg 77%
    09:00 +16°C° 0 mm 1 m/s 749 mmHg 71%
    10:00 +17°C° 0 mm 2 m/s 749 mmHg 65%
    11:00 +18°C° 0 mm 2 m/s 749 mmHg 59%
    12:00 +19°C° 0 mm 2 m/s 749 mmHg 56%
    13:00 +19°C° 0 mm 2 m/s 749 mmHg 53%
    14:00 +20°C° 0 mm 2 m/s 749 mmHg 50%
    15:00 +19°C° 0.1 mm 2 m/s 749 mmHg 54%
    16:00 +18°C° 0.1 mm 2 m/s 749 mmHg 57%
    17:00 +17°C° 0.1 mm 2 m/s 749 mmHg 61%
    18:00 +16°C° 0.1 mm 2 m/s 749 mmHg 65%
    19:00 +15°C° 0.1 mm 2 m/s 750 mmHg 69%
    20:00 +14°C° 0.1 mm 2 m/s 750 mmHg 73%
    21:00 +14°C° 0 mm 2 m/s 750 mmHg 76%
    22:00 +13°C° 0 mm 1 m/s 750 mmHg 78%
    23:00 +13°C° 0 mm 1 m/s 750 mmHg 81%
    Mostrar mais